Tracking 19905 objects as of 17-Oct-2019
HD Live streaming from Space Station
objects crossing your sky now

YAOGAN 1 DEB


YAOGAN 1 DEB is no longer on orbit


NORAD ID: 36363
Int'l Code: 2006-015G
Perigee: N/A
Apogee: N/A
Inclination: N/A
Period: N/A
Semi major axis: N/A
RCS: N/A
Launch date: April 26, 2006
Source: People's Republic of China (PRC)
Launch site: Taiyaun Space Center, China (TSC)
Decay date: 2012-08-04

Note: This is SATELLITE DEBRIS
aabbcc
Your satellite tracking list
Your tracking list is empty




NASA's NSSDC Master Catalog

Two Line Element Set (TLE):
1 36363U 06015G   12217.82532854  .52114705  27459-5  69544-2 0  9990
2 36363 097.8676 232.9818 0017371 256.1216 105.6755 16.34993232136787
Source of the keplerian elements: AFSPC